This is the latest recevied weather packets stored in our database for station/object KB1RMA-4. If no packets are shown the sender has not sent any weather packets the latest 10 day(s).
| Time | Temp. | Humidity | Pressure | Rain* | Wind** | Luminosity | Snow |
|---|---|---|---|---|---|---|---|
| 1788365829 | 20.56° C | 80% | 1022.7 hPa | 0 mm | - | 447 W/m² | - |
| 1788365525 | 20.56° C | 80% | 1022.9 hPa | 0 mm | - | 383 W/m² | - |
| 1788365222 | 20.56° C | 80% | 1022.8 hPa | 0 mm | - | 509 W/m² | - |
| 1788364915 | 20.56° C | 80% | 1023 hPa | 0 mm | - | 598 W/m² | - |
| 1788364614 | 20.56° C | 81% | 1022.9 hPa | 0 mm | - | 507 W/m² | - |
| 1788364313 | 20° C | 82% | 1023.1 hPa | 0 mm | - | 456 W/m² | - |
| 1788364009 | 20° C | 83% | 1023.2 hPa | 0 mm | - | 510 W/m² | - |
| 1788363708 | 19.44° C | 84% | 1023.1 hPa | 0 mm | - | 314 W/m² | - |
| 1788363408 | 19.44° C | 84% | 1023.1 hPa | 0 mm | - | 232 W/m² | - |
| 1788363103 | 19.44° C | 84% | 1023.2 hPa | 0 mm | - | 171 W/m² | - |
| 1788362799 | 19.44° C | 84% | 1023.4 hPa | 0 mm | - | 145 W/m² | - |
| 1788362494 | 19.44° C | 84% | 1023.4 hPa | 0 mm | - | 208 W/m² | - |
| 1788362190 | 19.44° C | 84% | 1023.5 hPa | 0 mm | - | 218 W/m² | - |
| 1788361885 | 19.44° C | 83% | 1023.2 hPa | 0 mm | - | 198 W/m² | - |
| 1788361580 | 19.44° C | 83% | 1023.2 hPa | 0 mm | - | 308 W/m² | - |
| 1788361276 | 19.44° C | 84% | 1023.2 hPa | 0 mm | - | 299 W/m² | - |
| 1788360975 | 19.44° C | 84% | 1023 hPa | 0 mm | - | 335 W/m² | - |
| 1788360675 | 19.44° C | 84% | 1023 hPa | 0 mm | - | 226 W/m² | - |
| 1788360372 | 19.44° C | 84% | 1022.8 hPa | 0 mm | - | 223 W/m² | - |
| 1788360072 | 18.89° C | 85% | 1022.6 hPa | 0 mm | - | 320 W/m² | - |
| 1788359767 | 18.89° C | 86% | 1022.8 hPa | 0 mm | - | 296 W/m² | - |
| 1788359463 | 18.89° C | 86% | 1022.7 hPa | 0 mm | - | 251 W/m² | - |
| 1788359158 | 18.89° C | 86% | 1023 hPa | 0 mm | - | 197 W/m² | - |
| 1788358854 | 18.89° C | 87% | 1022.8 hPa | 0 mm | - | 222 W/m² | - |
| 1788358553 | 18.89° C | 88% | 1022.5 hPa | 0 mm | - | 191 W/m² | - |
* Rain latest hour (hover to see other rain measurements)
** Current wind speed in m/s (hover to see current wind gust speed)